This is the latest recevied weather packets stored in our database for station/object WD7CGF. If no packets are shown the sender has not sent any weather packets the latest 10 day(s).
| Time | Temp. | Humidity | Pressure | Rain* | Wind** | Luminosity | Snow |
|---|---|---|---|---|---|---|---|
| 1787716716 | 22.78° C | 56% | 1013.5 hPa | 0 mm | - | - | - |
| 1787716128 | 22.78° C | 58% | 1013.5 hPa | 0 mm | - | - | - |
| 1787715525 | 22.22° C | 59% | 1013.3 hPa | 0 mm | - | - | - |
| 1787714919 | 22.78° C | 55% | 1013 hPa | 0 mm | - | - | - |
| 1787714312 | 23.33° C | 53% | 1013 hPa | 0 mm | - | - | - |
| 1787713727 | 23.89° C | 54% | 1012.9 hPa | 0 mm | - | - | - |
| 1787713120 | 24.44° C | 52% | 1012.6 hPa | 0 mm | - | - | - |
| 1787712514 | 25.56° C | 50% | 1012.6 hPa | 0 mm | - | - | - |
| 1787711925 | 26.11° C | 48% | 1012.5 hPa | 0 mm | - | - | - |
| 1787711317 | 26.67° C | 46% | 1012.3 hPa | 0 mm | - | - | - |
| 1787710715 | 27.22° C | 44% | 1012.3 hPa | 0 mm | - | - | - |
| 1787710126 | 27.78° C | 38% | 1012.4 hPa | 0 mm | - | - | - |
| 1787709530 | 28.89° C | 40% | 1012.3 hPa | 0 mm | - | - | - |
| 1787708914 | 29.44° C | 38% | 1012.3 hPa | 0 mm | - | - | - |
| 1787708327 | 30° C | 36% | 1012.4 hPa | 0 mm | - | - | - |
| 1787707720 | 30.56° C | 35% | 1012.4 hPa | 0 mm | - | - | - |
| 1787707114 | 30.56° C | 32% | 1012.4 hPa | 0 mm | - | - | - |
| 1787706526 | 30.56° C | 30% | 1012.4 hPa | 0 mm | - | - | - |
| 1787705920 | 31.11° C | 31% | 1012.3 hPa | 0 mm | - | - | - |
| 1787705317 | 31.11° C | 30% | 1012.3 hPa | 0 mm | - | - | - |
| 1787704730 | 31.11° C | 28% | 1012.4 hPa | 0 mm | - | - | - |
| 1787704126 | 31.67° C | 30% | 1012.4 hPa | 0 mm | - | - | - |
| 1787703518 | 31.67° C | 26% | 1012.4 hPa | 0 mm | - | - | - |
| 1787702911 | 31.67° C | 28% | 1012.6 hPa | 0 mm | - | - | - |
| 1787702323 | 31.67° C | 30% | 1012.8 hPa | 0 mm | - | - | - |
* Rain latest hour (hover to see other rain measurements)
** Current wind speed in m/s (hover to see current wind gust speed)